Index of /20260415/WXO-DD/model_rdps/10km/18/004
Name Last modified Size Description
Parent Directory -
20260415T18Z_MSC_RDPS_AbsoluteVorticity_IsbL-0250_RLatLon0.09_PT004H.grib2 2026-04-15 20:40 592K
20260415T18Z_MSC_RDPS_AbsoluteVorticity_IsbL-0500_RLatLon0.09_PT004H.grib2 2026-04-15 20:40 552K
20260415T18Z_MSC_RDPS_AbsoluteVorticity_IsbL-0700_RLatLon0.09_PT004H.grib2 2026-04-15 20:40 612K
20260415T18Z_MSC_RDPS_AbsoluteVorticity_IsbL-0850_RLatLon0.09_PT004H.grib2 2026-04-15 20:40 776K
20260415T18Z_MSC_RDPS_AirTemp_AGL-120m_RLatLon0.09_PT004H.grib2 2026-04-15 20:40 394K
20260415T18Z_MSC_RDPS_AirTemp_AGL-2m_RLatLon0.09_PT004H.grib2 2026-04-15 20:40 628K
20260415T18Z_MSC_RDPS_AirTemp_AGL-40m_RLatLon0.09_PT004H.grib2 2026-04-15 20:40 404K
20260415T18Z_MSC_RDPS_AirTemp_AGL-80m_RLatLon0.09_PT004H.grib2 2026-04-15 20:40 399K
20260415T18Z_MSC_RDPS_AirTemp_IsbL-0001_RLatLon0.09_PT004H.grib2 2026-04-15 20:40 311K
20260415T18Z_MSC_RDPS_AirTemp_IsbL-0005_RLatLon0.09_PT004H.grib2 2026-04-15 20:40 245K
20260415T18Z_MSC_RDPS_AirTemp_IsbL-0010_RLatLon0.09_PT004H.grib2 2026-04-15 20:40 326K
20260415T18Z_MSC_RDPS_AirTemp_IsbL-0020_RLatLon0.09_PT004H.grib2 2026-04-15 20:40 342K
20260415T18Z_MSC_RDPS_AirTemp_IsbL-0030_RLatLon0.09_PT004H.grib2 2026-04-15 20:40 360K
20260415T18Z_MSC_RDPS_AirTemp_IsbL-0050_RLatLon0.09_PT004H.grib2 2026-04-15 20:40 313K
20260415T18Z_MSC_RDPS_AirTemp_IsbL-0100_RLatLon0.09_PT004H.grib2 2026-04-15 20:40 376K
20260415T18Z_MSC_RDPS_AirTemp_IsbL-0150_RLatLon0.09_PT004H.grib2 2026-04-15 20:40 421K
20260415T18Z_MSC_RDPS_AirTemp_IsbL-0175_RLatLon0.09_PT004H.grib2 2026-04-15 20:40 394K
20260415T18Z_MSC_RDPS_AirTemp_IsbL-0200_RLatLon0.09_PT004H.grib2 2026-04-15 20:40 403K
20260415T18Z_MSC_RDPS_AirTemp_IsbL-0225_RLatLon0.09_PT004H.grib2 2026-04-15 20:40 405K
20260415T18Z_MSC_RDPS_AirTemp_IsbL-0250_RLatLon0.09_PT004H.grib2 2026-04-15 20:40 413K
20260415T18Z_MSC_RDPS_AirTemp_IsbL-0275_RLatLon0.09_PT004H.grib2 2026-04-15 20:40 399K
20260415T18Z_MSC_RDPS_AirTemp_IsbL-0300_RLatLon0.09_PT004H.grib2 2026-04-15 20:40 433K
20260415T18Z_MSC_RDPS_AirTemp_IsbL-0350_RLatLon0.09_PT004H.grib2 2026-04-15 20:40 418K
20260415T18Z_MSC_RDPS_AirTemp_IsbL-0400_RLatLon0.09_PT004H.grib2 2026-04-15 20:40 384K
20260415T18Z_MSC_RDPS_AirTemp_IsbL-0450_RLatLon0.09_PT004H.grib2 2026-04-15 20:40 394K
20260415T18Z_MSC_RDPS_AirTemp_IsbL-0500_RLatLon0.09_PT004H.grib2 2026-04-15 20:40 407K
20260415T18Z_MSC_RDPS_AirTemp_IsbL-0550_RLatLon0.09_PT004H.grib2 2026-04-15 20:40 427K
20260415T18Z_MSC_RDPS_AirTemp_IsbL-0600_RLatLon0.09_PT004H.grib2 2026-04-15 20:40 445K
20260415T18Z_MSC_RDPS_AirTemp_IsbL-0650_RLatLon0.09_PT004H.grib2 2026-04-15 20:40 355K
20260415T18Z_MSC_RDPS_AirTemp_IsbL-0700_RLatLon0.09_PT004H.grib2 2026-04-15 20:40 376K
20260415T18Z_MSC_RDPS_AirTemp_IsbL-0750_RLatLon0.09_PT004H.grib2 2026-04-15 20:40 413K
20260415T18Z_MSC_RDPS_AirTemp_IsbL-0800_RLatLon0.09_PT004H.grib2 2026-04-15 20:40 456K
20260415T18Z_MSC_RDPS_AirTemp_IsbL-0850_RLatLon0.09_PT004H.grib2 2026-04-15 20:40 493K
20260415T18Z_MSC_RDPS_AirTemp_IsbL-0875_RLatLon0.09_PT004H.grib2 2026-04-15 20:40 508K
20260415T18Z_MSC_RDPS_AirTemp_IsbL-0900_RLatLon0.09_PT004H.grib2 2026-04-15 20:40 519K
20260415T18Z_MSC_RDPS_AirTemp_IsbL-0925_RLatLon0.09_PT004H.grib2 2026-04-15 20:40 532K
20260415T18Z_MSC_RDPS_AirTemp_IsbL-0950_RLatLon0.09_PT004H.grib2 2026-04-15 20:40 534K
20260415T18Z_MSC_RDPS_AirTemp_IsbL-0970_RLatLon0.09_PT004H.grib2 2026-04-15 20:40 531K
20260415T18Z_MSC_RDPS_AirTemp_IsbL-0985_RLatLon0.09_PT004H.grib2 2026-04-15 20:40 521K
20260415T18Z_MSC_RDPS_AirTemp_IsbL-1000_RLatLon0.09_PT004H.grib2 2026-04-15 20:40 508K
20260415T18Z_MSC_RDPS_AirTemp_IsbL-1015_RLatLon0.09_PT004H.grib2 2026-04-15 20:40 505K
20260415T18Z_MSC_RDPS_Albedo_Sfc_RLatLon0.09_PT004H.grib2 2026-04-15 20:40 162K
20260415T18Z_MSC_RDPS_CAPE_Sfc_RLatLon0.09_PT004H.grib2 2026-04-15 20:40 1.7M
20260415T18Z_MSC_RDPS_CIN_Sfc_RLatLon0.09_PT004H.grib2 2026-04-15 20:40 1.3M
20260415T18Z_MSC_RDPS_CloudWater_EAtm_RLatLon0.09_PT004H.grib2 2026-04-15 20:40 210K
20260415T18Z_MSC_RDPS_ConvectivePrecip-Accum_Sfc_RLatLon0.09_PT004H.grib2 2026-04-15 20:40 465K
20260415T18Z_MSC_RDPS_DewPointDepression_AGL-2m_RLatLon0.09_PT004H.grib2 2026-04-15 20:40 405K
20260415T18Z_MSC_RDPS_DewPointDepression_IsbL-0001_RLatLon0.09_PT004H.grib2 2026-04-15 20:40 193
20260415T18Z_MSC_RDPS_DewPointDepression_IsbL-0005_RLatLon0.09_PT004H.grib2 2026-04-15 20:40 193
20260415T18Z_MSC_RDPS_DewPointDepression_IsbL-0010_RLatLon0.09_PT004H.grib2 2026-04-15 20:40 193
20260415T18Z_MSC_RDPS_DewPointDepression_IsbL-0020_RLatLon0.09_PT004H.grib2 2026-04-15 20:40 193
20260415T18Z_MSC_RDPS_DewPointDepression_IsbL-0030_RLatLon0.09_PT004H.grib2 2026-04-15 20:40 12K
20260415T18Z_MSC_RDPS_DewPointDepression_IsbL-0050_RLatLon0.09_PT004H.grib2 2026-04-15 20:40 104K
20260415T18Z_MSC_RDPS_DewPointDepression_IsbL-0100_RLatLon0.09_PT004H.grib2 2026-04-15 20:40 121K
20260415T18Z_MSC_RDPS_DewPointDepression_IsbL-0150_RLatLon0.09_PT004H.grib2 2026-04-15 20:40 139K
20260415T18Z_MSC_RDPS_DewPointDepression_IsbL-0175_RLatLon0.09_PT004H.grib2 2026-04-15 20:40 170K
20260415T18Z_MSC_RDPS_DewPointDepression_IsbL-0200_RLatLon0.09_PT004H.grib2 2026-04-15 20:40 207K
20260415T18Z_MSC_RDPS_DewPointDepression_IsbL-0225_RLatLon0.09_PT004H.grib2 2026-04-15 20:40 246K
20260415T18Z_MSC_RDPS_DewPointDepression_IsbL-0250_RLatLon0.09_PT004H.grib2 2026-04-15 20:40 293K
20260415T18Z_MSC_RDPS_DewPointDepression_IsbL-0275_RLatLon0.09_PT004H.grib2 2026-04-15 20:40 309K
20260415T18Z_MSC_RDPS_DewPointDepression_IsbL-0300_RLatLon0.09_PT004H.grib2 2026-04-15 20:40 326K
20260415T18Z_MSC_RDPS_DewPointDepression_IsbL-0350_RLatLon0.09_PT004H.grib2 2026-04-15 20:40 325K
20260415T18Z_MSC_RDPS_DewPointDepression_IsbL-0400_RLatLon0.09_PT004H.grib2 2026-04-15 20:40 335K
20260415T18Z_MSC_RDPS_DewPointDepression_IsbL-0450_RLatLon0.09_PT004H.grib2 2026-04-15 20:40 342K
20260415T18Z_MSC_RDPS_DewPointDepression_IsbL-0500_RLatLon0.09_PT004H.grib2 2026-04-15 20:40 350K
20260415T18Z_MSC_RDPS_DewPointDepression_IsbL-0550_RLatLon0.09_PT004H.grib2 2026-04-15 20:40 362K
20260415T18Z_MSC_RDPS_DewPointDepression_IsbL-0600_RLatLon0.09_PT004H.grib2 2026-04-15 20:40 373K
20260415T18Z_MSC_RDPS_DewPointDepression_IsbL-0650_RLatLon0.09_PT004H.grib2 2026-04-15 20:40 379K
20260415T18Z_MSC_RDPS_DewPointDepression_IsbL-0700_RLatLon0.09_PT004H.grib2 2026-04-15 20:40 391K
20260415T18Z_MSC_RDPS_DewPointDepression_IsbL-0750_RLatLon0.09_PT004H.grib2 2026-04-15 20:40 414K
20260415T18Z_MSC_RDPS_DewPointDepression_IsbL-0800_RLatLon0.09_PT004H.grib2 2026-04-15 20:40 444K
20260415T18Z_MSC_RDPS_DewPointDepression_IsbL-0850_RLatLon0.09_PT004H.grib2 2026-04-15 20:40 459K
20260415T18Z_MSC_RDPS_DewPointDepression_IsbL-0875_RLatLon0.09_PT004H.grib2 2026-04-15 20:40 462K
20260415T18Z_MSC_RDPS_DewPointDepression_IsbL-0900_RLatLon0.09_PT004H.grib2 2026-04-15 20:40 458K
20260415T18Z_MSC_RDPS_DewPointDepression_IsbL-0925_RLatLon0.09_PT004H.grib2 2026-04-15 20:40 448K
20260415T18Z_MSC_RDPS_DewPointDepression_IsbL-0950_RLatLon0.09_PT004H.grib2 2026-04-15 20:40 441K
20260415T18Z_MSC_RDPS_DewPointDepression_IsbL-0970_RLatLon0.09_PT004H.grib2 2026-04-15 20:40 433K
20260415T18Z_MSC_RDPS_DewPointDepression_IsbL-0985_RLatLon0.09_PT004H.grib2 2026-04-15 20:40 425K
20260415T18Z_MSC_RDPS_DewPointDepression_IsbL-1000_RLatLon0.09_PT004H.grib2 2026-04-15 20:40 420K
20260415T18Z_MSC_RDPS_DewPointDepression_IsbL-1015_RLatLon0.09_PT004H.grib2 2026-04-15 20:40 411K
20260415T18Z_MSC_RDPS_DewPoint_AGL-2m_RLatLon0.09_PT004H.grib2 2026-04-15 20:40 309K
20260415T18Z_MSC_RDPS_DownwardLongwaveRadiationFlux-Accum_Sfc_RLatLon0.09_PT004H.grib2 2026-04-15 20:40 479K
20260415T18Z_MSC_RDPS_DownwardShortwaveRadiationFlux-Accum_NTAtm_RLatLon0.09_PT004H.grib2 2026-04-15 20:40 141K
20260415T18Z_MSC_RDPS_DownwardShortwaveRadiationFlux-Accum_Sfc_RLatLon0.09_PT004H.grib2 2026-04-15 20:40 522K
20260415T18Z_MSC_RDPS_FreezingRain-Accum1h_Sfc_RLatLon0.09_PT004H.grib2 2026-04-15 20:40 23K
20260415T18Z_MSC_RDPS_FreezingRain-Accum_Sfc_RLatLon0.09_PT004H.grib2 2026-04-15 20:40 32K
20260415T18Z_MSC_RDPS_GeopotentialHeight_IsbL-0001_RLatLon0.09_PT004H.grib2 2026-04-15 20:40 213K
20260415T18Z_MSC_RDPS_GeopotentialHeight_IsbL-0005_RLatLon0.09_PT004H.grib2 2026-04-15 20:40 267K
20260415T18Z_MSC_RDPS_GeopotentialHeight_IsbL-0010_RLatLon0.09_PT004H.grib2 2026-04-15 20:40 307K
20260415T18Z_MSC_RDPS_GeopotentialHeight_IsbL-0020_RLatLon0.09_PT004H.grib2 2026-04-15 20:40 334K
20260415T18Z_MSC_RDPS_GeopotentialHeight_IsbL-0030_RLatLon0.09_PT004H.grib2 2026-04-15 20:40 336K
20260415T18Z_MSC_RDPS_GeopotentialHeight_IsbL-0050_RLatLon0.09_PT004H.grib2 2026-04-15 20:40 238K
20260415T18Z_MSC_RDPS_GeopotentialHeight_IsbL-0100_RLatLon0.09_PT004H.grib2 2026-04-15 20:40 223K
20260415T18Z_MSC_RDPS_GeopotentialHeight_IsbL-0150_RLatLon0.09_PT004H.grib2 2026-04-15 20:40 264K
20260415T18Z_MSC_RDPS_GeopotentialHeight_IsbL-0175_RLatLon0.09_PT004H.grib2 2026-04-15 20:40 265K
20260415T18Z_MSC_RDPS_GeopotentialHeight_IsbL-0200_RLatLon0.09_PT004H.grib2 2026-04-15 20:40 266K
20260415T18Z_MSC_RDPS_GeopotentialHeight_IsbL-0225_RLatLon0.09_PT004H.grib2 2026-04-15 20:40 268K
20260415T18Z_MSC_RDPS_GeopotentialHeight_IsbL-0250_RLatLon0.09_PT004H.grib2 2026-04-15 20:40 268K
20260415T18Z_MSC_RDPS_GeopotentialHeight_IsbL-0275_RLatLon0.09_PT004H.grib2 2026-04-15 20:40 267K
20260415T18Z_MSC_RDPS_GeopotentialHeight_IsbL-0300_RLatLon0.09_PT004H.grib2 2026-04-15 20:40 266K
20260415T18Z_MSC_RDPS_GeopotentialHeight_IsbL-0350_RLatLon0.09_PT004H.grib2 2026-04-15 20:40 263K
20260415T18Z_MSC_RDPS_GeopotentialHeight_IsbL-0400_RLatLon0.09_PT004H.grib2 2026-04-15 20:40 228K
20260415T18Z_MSC_RDPS_GeopotentialHeight_IsbL-0450_RLatLon0.09_PT004H.grib2 2026-04-15 20:40 223K
20260415T18Z_MSC_RDPS_GeopotentialHeight_IsbL-0500_RLatLon0.09_PT004H.grib2 2026-04-15 20:40 218K
20260415T18Z_MSC_RDPS_GeopotentialHeight_IsbL-0550_RLatLon0.09_PT004H.grib2 2026-04-15 20:40 285K
20260415T18Z_MSC_RDPS_GeopotentialHeight_IsbL-0600_RLatLon0.09_PT004H.grib2 2026-04-15 20:40 284K
20260415T18Z_MSC_RDPS_GeopotentialHeight_IsbL-0650_RLatLon0.09_PT004H.grib2 2026-04-15 20:40 281K
20260415T18Z_MSC_RDPS_GeopotentialHeight_IsbL-0700_RLatLon0.09_PT004H.grib2 2026-04-15 20:40 252K
20260415T18Z_MSC_RDPS_GeopotentialHeight_IsbL-0750_RLatLon0.09_PT004H.grib2 2026-04-15 20:40 254K
20260415T18Z_MSC_RDPS_GeopotentialHeight_IsbL-0800_RLatLon0.09_PT004H.grib2 2026-04-15 20:40 344K
20260415T18Z_MSC_RDPS_GeopotentialHeight_IsbL-0850_RLatLon0.09_PT004H.grib2 2026-04-15 20:40 383K
20260415T18Z_MSC_RDPS_GeopotentialHeight_IsbL-0875_RLatLon0.09_PT004H.grib2 2026-04-15 20:40 386K
20260415T18Z_MSC_RDPS_GeopotentialHeight_IsbL-0900_RLatLon0.09_PT004H.grib2 2026-04-15 20:40 390K
20260415T18Z_MSC_RDPS_GeopotentialHeight_IsbL-0925_RLatLon0.09_PT004H.grib2 2026-04-15 20:40 395K
20260415T18Z_MSC_RDPS_GeopotentialHeight_IsbL-0950_RLatLon0.09_PT004H.grib2 2026-04-15 20:40 398K
20260415T18Z_MSC_RDPS_GeopotentialHeight_IsbL-0970_RLatLon0.09_PT004H.grib2 2026-04-15 20:40 405K
20260415T18Z_MSC_RDPS_GeopotentialHeight_IsbL-0985_RLatLon0.09_PT004H.grib2 2026-04-15 20:40 415K
20260415T18Z_MSC_RDPS_GeopotentialHeight_IsbL-1000_RLatLon0.09_PT004H.grib2 2026-04-15 20:40 427K
20260415T18Z_MSC_RDPS_GeopotentialHeight_IsbL-1015_RLatLon0.09_PT004H.grib2 2026-04-15 20:40 442K
20260415T18Z_MSC_RDPS_Humidex_Sfc_RLatLon0.09_PT004H.grib2 2026-04-15 20:40 2.4M
20260415T18Z_MSC_RDPS_IcePellets-Accum1h_Sfc_RLatLon0.09_PT004H.grib2 2026-04-15 20:40 2.9K
20260415T18Z_MSC_RDPS_IcePellets-Accum_Sfc_RLatLon0.09_PT004H.grib2 2026-04-15 20:40 3.8K
20260415T18Z_MSC_RDPS_KIndex_Sfc_RLatLon0.09_PT004H.grib2 2026-04-15 20:40 2.3M
20260415T18Z_MSC_RDPS_LatentHeatNetFlux_Sfc_RLatLon0.09_PT004H.grib2 2026-04-15 20:40 272K
20260415T18Z_MSC_RDPS_LiftedIndex-MU-VT_IsbL-0500_RLatLon0.09_PT004H.grib2 2026-04-15 20:40 2.4M
20260415T18Z_MSC_RDPS_NetLongwaveRadiationFlux-Accum_Sfc_RLatLon0.09_PT004H.grib2 2026-04-15 20:40 503K
20260415T18Z_MSC_RDPS_NetShortwaveRadiationFlux-Accum_Sfc_RLatLon0.09_PT004H.grib2 2026-04-15 20:40 520K
20260415T18Z_MSC_RDPS_PlanetaryBoundaryLayerHeight_Sfc_RLatLon0.09_PT004H.grib2 2026-04-15 20:40 1.0M
20260415T18Z_MSC_RDPS_Precip-Accum1h_Sfc_RLatLon0.09_PT004H.grib2 2026-04-15 20:40 1.2M
20260415T18Z_MSC_RDPS_Precip-Accum_Sfc_RLatLon0.09_PT004H.grib2 2026-04-15 20:40 1.3M
20260415T18Z_MSC_RDPS_PrecipRate_Sfc_RLatLon0.09_PT004H.grib2 2026-04-15 20:40 172K
20260415T18Z_MSC_RDPS_PrecipType-Instant_Sfc_RLatLon0.09_PT004H.grib2 2026-04-15 20:40 560K
20260415T18Z_MSC_RDPS_Pressure-Trend3h_Sfc_RLatLon0.09_PT004H.grib2 2026-04-15 20:40 1.2M
20260415T18Z_MSC_RDPS_Pressure_MSL_RLatLon0.09_PT004H.grib2 2026-04-15 20:40 328K
20260415T18Z_MSC_RDPS_Pressure_PVU-1.5_RLatLon0.09_PT004H.grib2 2026-04-15 20:40 2.4M
20260415T18Z_MSC_RDPS_Pressure_PVU-1_RLatLon0.09_PT004H.grib2 2026-04-15 20:40 2.4M
20260415T18Z_MSC_RDPS_Pressure_PVU-2_RLatLon0.09_PT004H.grib2 2026-04-15 20:40 2.4M
20260415T18Z_MSC_RDPS_Pressure_Sfc_RLatLon0.09_PT004H.grib2 2026-04-15 20:40 499K
20260415T18Z_MSC_RDPS_RadiativeTemp_Sfc_RLatLon0.09_PT004H.grib2 2026-04-15 20:40 322K
20260415T18Z_MSC_RDPS_Rain-Accum1h_Sfc_RLatLon0.09_PT004H.grib2 2026-04-15 20:40 576K
20260415T18Z_MSC_RDPS_Rain-Accum_Sfc_RLatLon0.09_PT004H.grib2 2026-04-15 20:40 953K
20260415T18Z_MSC_RDPS_RelativeHumidity_AGL-2m_RLatLon0.09_PT004H.grib2 2026-04-15 20:40 1.0M
20260415T18Z_MSC_RDPS_RelativeHumidity_IsbL-0010_RLatLon0.09_PT004H.grib2 2026-04-15 20:40 501K
20260415T18Z_MSC_RDPS_RelativeHumidity_IsbL-0020_RLatLon0.09_PT004H.grib2 2026-04-15 20:40 392K
20260415T18Z_MSC_RDPS_RelativeHumidity_IsbL-0030_RLatLon0.09_PT004H.grib2 2026-04-15 20:40 351K
20260415T18Z_MSC_RDPS_RelativeHumidity_IsbL-0050_RLatLon0.09_PT004H.grib2 2026-04-15 20:40 381K
20260415T18Z_MSC_RDPS_RelativeHumidity_IsbL-0100_RLatLon0.09_PT004H.grib2 2026-04-15 20:40 256K
20260415T18Z_MSC_RDPS_RelativeHumidity_IsbL-0150_RLatLon0.09_PT004H.grib2 2026-04-15 20:40 376K
20260415T18Z_MSC_RDPS_RelativeHumidity_IsbL-0175_RLatLon0.09_PT004H.grib2 2026-04-15 20:40 451K
20260415T18Z_MSC_RDPS_RelativeHumidity_IsbL-0200_RLatLon0.09_PT004H.grib2 2026-04-15 20:40 521K
20260415T18Z_MSC_RDPS_RelativeHumidity_IsbL-0225_RLatLon0.09_PT004H.grib2 2026-04-15 20:40 589K
20260415T18Z_MSC_RDPS_RelativeHumidity_IsbL-0250_RLatLon0.09_PT004H.grib2 2026-04-15 20:40 664K
20260415T18Z_MSC_RDPS_RelativeHumidity_IsbL-0275_RLatLon0.09_PT004H.grib2 2026-04-15 20:40 699K
20260415T18Z_MSC_RDPS_RelativeHumidity_IsbL-0300_RLatLon0.09_PT004H.grib2 2026-04-15 20:40 749K
20260415T18Z_MSC_RDPS_RelativeHumidity_IsbL-0350_RLatLon0.09_PT004H.grib2 2026-04-15 20:40 767K
20260415T18Z_MSC_RDPS_RelativeHumidity_IsbL-0400_RLatLon0.09_PT004H.grib2 2026-04-15 20:40 778K
20260415T18Z_MSC_RDPS_RelativeHumidity_IsbL-0450_RLatLon0.09_PT004H.grib2 2026-04-15 20:40 785K
20260415T18Z_MSC_RDPS_RelativeHumidity_IsbL-0500_RLatLon0.09_PT004H.grib2 2026-04-15 20:40 805K
20260415T18Z_MSC_RDPS_RelativeHumidity_IsbL-0550_RLatLon0.09_PT004H.grib2 2026-04-15 20:40 828K
20260415T18Z_MSC_RDPS_RelativeHumidity_IsbL-0600_RLatLon0.09_PT004H.grib2 2026-04-15 20:40 848K
20260415T18Z_MSC_RDPS_RelativeHumidity_IsbL-0650_RLatLon0.09_PT004H.grib2 2026-04-15 20:40 860K
20260415T18Z_MSC_RDPS_RelativeHumidity_IsbL-0700_RLatLon0.09_PT004H.grib2 2026-04-15 20:40 885K
20260415T18Z_MSC_RDPS_RelativeHumidity_IsbL-0750_RLatLon0.09_PT004H.grib2 2026-04-15 20:40 933K
20260415T18Z_MSC_RDPS_RelativeHumidity_IsbL-0800_RLatLon0.09_PT004H.grib2 2026-04-15 20:40 1.0M
20260415T18Z_MSC_RDPS_RelativeHumidity_IsbL-0850_RLatLon0.09_PT004H.grib2 2026-04-15 20:40 1.0M
20260415T18Z_MSC_RDPS_RelativeHumidity_IsbL-0875_RLatLon0.09_PT004H.grib2 2026-04-15 20:40 1.0M
20260415T18Z_MSC_RDPS_RelativeHumidity_IsbL-0900_RLatLon0.09_PT004H.grib2 2026-04-15 20:40 1.1M
20260415T18Z_MSC_RDPS_RelativeHumidity_IsbL-0925_RLatLon0.09_PT004H.grib2 2026-04-15 20:40 1.1M
20260415T18Z_MSC_RDPS_RelativeHumidity_IsbL-0950_RLatLon0.09_PT004H.grib2 2026-04-15 20:40 1.1M
20260415T18Z_MSC_RDPS_RelativeHumidity_IsbL-0970_RLatLon0.09_PT004H.grib2 2026-04-15 20:40 1.0M
20260415T18Z_MSC_RDPS_RelativeHumidity_IsbL-0985_RLatLon0.09_PT004H.grib2 2026-04-15 20:40 1.0M
20260415T18Z_MSC_RDPS_RelativeHumidity_IsbL-1000_RLatLon0.09_PT004H.grib2 2026-04-15 20:40 1.0M
20260415T18Z_MSC_RDPS_RelativeHumidity_IsbL-1015_RLatLon0.09_PT004H.grib2 2026-04-15 20:40 1.0M
20260415T18Z_MSC_RDPS_Runoff-Accum_Sfc_RLatLon0.09_PT004H.grib2 2026-04-15 20:40 35K
20260415T18Z_MSC_RDPS_SWEATIndex_Sfc_RLatLon0.09_PT004H.grib2 2026-04-15 20:40 2.4M
20260415T18Z_MSC_RDPS_SeeingIndex_EAtm_RLatLon0.09_PT004H.grib2 2026-04-15 20:40 1.0M
20260415T18Z_MSC_RDPS_SensibleHeatNetFlux_Sfc_RLatLon0.09_PT004H.grib2 2026-04-15 20:40 336K
20260415T18Z_MSC_RDPS_ShowalterIndex_IsbL-0500_RLatLon0.09_PT004H.grib2 2026-04-15 20:40 2.6M
20260415T18Z_MSC_RDPS_SkyTransparencyIndex_EAtm_RLatLon0.09_PT004H.grib2 2026-04-15 20:40 701K
20260415T18Z_MSC_RDPS_Snow-Accum1h_Sfc_RLatLon0.09_PT004H.grib2 2026-04-15 20:40 505K
20260415T18Z_MSC_RDPS_Snow-Accum_Sfc_RLatLon0.09_PT004H.grib2 2026-04-15 20:40 607K
20260415T18Z_MSC_RDPS_SnowDensity_Sfc_RLatLon0.09_PT004H.grib2 2026-04-15 20:40 171K
20260415T18Z_MSC_RDPS_SnowDepth_Sfc_RLatLon0.09_PT004H.grib2 2026-04-15 20:40 716K
20260415T18Z_MSC_RDPS_SoilTemp_DBS-0to10cm_RLatLon0.09_PT004H.grib2 2026-04-15 20:40 200K
20260415T18Z_MSC_RDPS_SoilTemp_Sfc_RLatLon0.09_PT004H.grib2 2026-04-15 20:40 285K
20260415T18Z_MSC_RDPS_SoilVolumetricIceContent_Sfc_RLatLon0.09_PT004H.grib2 2026-04-15 20:40 175K
20260415T18Z_MSC_RDPS_SoilVolumetricWaterContent_DBS-0to10cm_RLatLon0.09_PT004H.grib2 2026-04-15 20:40 244K
20260415T18Z_MSC_RDPS_SoilVolumetricWaterContent_DBS-0to1cm_RLatLon0.09_PT004H.grib2 2026-04-15 20:40 329K
20260415T18Z_MSC_RDPS_SpecificHumidity_AGL-120m_RLatLon0.09_PT004H.grib2 2026-04-15 20:40 475K
20260415T18Z_MSC_RDPS_SpecificHumidity_AGL-2m_RLatLon0.09_PT004H.grib2 2026-04-15 20:40 640K
20260415T18Z_MSC_RDPS_SpecificHumidity_AGL-40m_RLatLon0.09_PT004H.grib2 2026-04-15 20:40 479K
20260415T18Z_MSC_RDPS_SpecificHumidity_AGL-80m_RLatLon0.09_PT004H.grib2 2026-04-15 20:40 476K
20260415T18Z_MSC_RDPS_SpecificHumidity_IsbL-0001_RLatLon0.09_PT004H.grib2 2026-04-15 20:40 303K
20260415T18Z_MSC_RDPS_SpecificHumidity_IsbL-0005_RLatLon0.09_PT004H.grib2 2026-04-15 20:40 338K
20260415T18Z_MSC_RDPS_SpecificHumidity_IsbL-0010_RLatLon0.09_PT004H.grib2 2026-04-15 20:40 365K
20260415T18Z_MSC_RDPS_SpecificHumidity_IsbL-0020_RLatLon0.09_PT004H.grib2 2026-04-15 20:40 374K
20260415T18Z_MSC_RDPS_SpecificHumidity_IsbL-0030_RLatLon0.09_PT004H.grib2 2026-04-15 20:40 436K
20260415T18Z_MSC_RDPS_SpecificHumidity_IsbL-0050_RLatLon0.09_PT004H.grib2 2026-04-15 20:40 495K
20260415T18Z_MSC_RDPS_SpecificHumidity_IsbL-0100_RLatLon0.09_PT004H.grib2 2026-04-15 20:40 380K
20260415T18Z_MSC_RDPS_SpecificHumidity_IsbL-0150_RLatLon0.09_PT004H.grib2 2026-04-15 20:40 428K
20260415T18Z_MSC_RDPS_SpecificHumidity_IsbL-0175_RLatLon0.09_PT004H.grib2 2026-04-15 20:40 413K
20260415T18Z_MSC_RDPS_SpecificHumidity_IsbL-0200_RLatLon0.09_PT004H.grib2 2026-04-15 20:40 444K
20260415T18Z_MSC_RDPS_SpecificHumidity_IsbL-0225_RLatLon0.09_PT004H.grib2 2026-04-15 20:40 431K
20260415T18Z_MSC_RDPS_SpecificHumidity_IsbL-0250_RLatLon0.09_PT004H.grib2 2026-04-15 20:40 494K
20260415T18Z_MSC_RDPS_SpecificHumidity_IsbL-0275_RLatLon0.09_PT004H.grib2 2026-04-15 20:40 460K
20260415T18Z_MSC_RDPS_SpecificHumidity_IsbL-0300_RLatLon0.09_PT004H.grib2 2026-04-15 20:40 437K
20260415T18Z_MSC_RDPS_SpecificHumidity_IsbL-0350_RLatLon0.09_PT004H.grib2 2026-04-15 20:40 549K
20260415T18Z_MSC_RDPS_SpecificHumidity_IsbL-0400_RLatLon0.09_PT004H.grib2 2026-04-15 20:40 502K
20260415T18Z_MSC_RDPS_SpecificHumidity_IsbL-0450_RLatLon0.09_PT004H.grib2 2026-04-15 20:40 554K
20260415T18Z_MSC_RDPS_SpecificHumidity_IsbL-0500_RLatLon0.09_PT004H.grib2 2026-04-15 20:40 493K
20260415T18Z_MSC_RDPS_SpecificHumidity_IsbL-0550_RLatLon0.09_PT004H.grib2 2026-04-15 20:40 570K
20260415T18Z_MSC_RDPS_SpecificHumidity_IsbL-0600_RLatLon0.09_PT004H.grib2 2026-04-15 20:40 620K
20260415T18Z_MSC_RDPS_SpecificHumidity_IsbL-0650_RLatLon0.09_PT004H.grib2 2026-04-15 20:40 538K
20260415T18Z_MSC_RDPS_SpecificHumidity_IsbL-0700_RLatLon0.09_PT004H.grib2 2026-04-15 20:40 582K
20260415T18Z_MSC_RDPS_SpecificHumidity_IsbL-0750_RLatLon0.09_PT004H.grib2 2026-04-15 20:40 641K
20260415T18Z_MSC_RDPS_SpecificHumidity_IsbL-0800_RLatLon0.09_PT004H.grib2 2026-04-15 20:40 724K
20260415T18Z_MSC_RDPS_SpecificHumidity_IsbL-0850_RLatLon0.09_PT004H.grib2 2026-04-15 20:40 782K
20260415T18Z_MSC_RDPS_SpecificHumidity_IsbL-0875_RLatLon0.09_PT004H.grib2 2026-04-15 20:40 804K
20260415T18Z_MSC_RDPS_SpecificHumidity_IsbL-0900_RLatLon0.09_PT004H.grib2 2026-04-15 20:40 821K
20260415T18Z_MSC_RDPS_SpecificHumidity_IsbL-0925_RLatLon0.09_PT004H.grib2 2026-04-15 20:40 689K
20260415T18Z_MSC_RDPS_SpecificHumidity_IsbL-0950_RLatLon0.09_PT004H.grib2 2026-04-15 20:40 692K
20260415T18Z_MSC_RDPS_SpecificHumidity_IsbL-0970_RLatLon0.09_PT004H.grib2 2026-04-15 20:40 685K
20260415T18Z_MSC_RDPS_SpecificHumidity_IsbL-0985_RLatLon0.09_PT004H.grib2 2026-04-15 20:40 676K
20260415T18Z_MSC_RDPS_SpecificHumidity_IsbL-1000_RLatLon0.09_PT004H.grib2 2026-04-15 20:40 666K
20260415T18Z_MSC_RDPS_SpecificHumidity_IsbL-1015_RLatLon0.09_PT004H.grib2 2026-04-15 20:40 654K
20260415T18Z_MSC_RDPS_SpecificHumidity_Sfc_RLatLon0.09_PT004H.grib2 2026-04-15 20:40 325K
20260415T18Z_MSC_RDPS_StormRelativeHelicity_EtaL-10000_RLatLon0.09_PT004H.grib2 2026-04-15 20:40 1.1M
20260415T18Z_MSC_RDPS_StormSeverityIndex_EtaL-10000_RLatLon0.09_PT004H.grib2 2026-04-15 20:40 1.2M
20260415T18Z_MSC_RDPS_Thickness_IsbL-0850to0700_RLatLon0.09_PT004H.grib2 2026-04-15 20:40 192K
20260415T18Z_MSC_RDPS_Thickness_IsbL-1000to0500_RLatLon0.09_PT004H.grib2 2026-04-15 20:40 135K
20260415T18Z_MSC_RDPS_Thickness_IsbL-1000to0850_RLatLon0.09_PT004H.grib2 2026-04-15 20:40 186K
20260415T18Z_MSC_RDPS_TotalCloudCover_Sfc_RLatLon0.09_PT004H.grib2 2026-04-15 20:40 650K
20260415T18Z_MSC_RDPS_TotalTotalsIndex_Sfc_RLatLon0.09_PT004H.grib2 2026-04-15 20:40 2.3M
20260415T18Z_MSC_RDPS_UVIndex-ClearSky_Sfc_RLatLon0.09_PT004H.grib2 2026-04-15 20:40 164K
20260415T18Z_MSC_RDPS_UVIndex_Sfc_RLatLon0.09_PT004H.grib2 2026-04-15 20:40 377K
20260415T18Z_MSC_RDPS_UpwardLongwaveRadiationFlux_NTAtm_RLatLon0.09_PT004H.grib2 2026-04-15 20:40 372K
20260415T18Z_MSC_RDPS_UpwardShortwaveRadiationFlux_NTAtm_RLatLon0.09_PT004H.grib2 2026-04-15 20:40 425K
20260415T18Z_MSC_RDPS_VerticalVelocity_IsbL-0250_RLatLon0.09_PT004H.grib2 2026-04-15 20:40 417K
20260415T18Z_MSC_RDPS_VerticalVelocity_IsbL-0500_RLatLon0.09_PT004H.grib2 2026-04-15 20:40 533K
20260415T18Z_MSC_RDPS_VerticalVelocity_IsbL-0700_RLatLon0.09_PT004H.grib2 2026-04-15 20:40 613K
20260415T18Z_MSC_RDPS_VerticalVelocity_IsbL-0850_RLatLon0.09_PT004H.grib2 2026-04-15 20:40 689K
20260415T18Z_MSC_RDPS_VerticalWindShear_EtaL-6500_RLatLon0.09_PT004H.grib2 2026-04-15 20:40 1.2M
20260415T18Z_MSC_RDPS_WindChill_Sfc_RLatLon0.09_PT004H.grib2 2026-04-15 20:40 1.1M
20260415T18Z_MSC_RDPS_WindDir_AGL-10m_RLatLon0.09_PT004H.grib2 2026-04-15 20:40 951K
20260415T18Z_MSC_RDPS_WindDir_AGL-120m_RLatLon0.09_PT004H.grib2 2026-04-15 20:40 594K
20260415T18Z_MSC_RDPS_WindDir_AGL-40m_RLatLon0.09_PT004H.grib2 2026-04-15 20:40 617K
20260415T18Z_MSC_RDPS_WindDir_AGL-80m_RLatLon0.09_PT004H.grib2 2026-04-15 20:40 603K
20260415T18Z_MSC_RDPS_WindDir_IsbL-0001_RLatLon0.09_PT004H.grib2 2026-04-15 20:40 243K
20260415T18Z_MSC_RDPS_WindDir_IsbL-0005_RLatLon0.09_PT004H.grib2 2026-04-15 20:40 346K
20260415T18Z_MSC_RDPS_WindDir_IsbL-0010_RLatLon0.09_PT004H.grib2 2026-04-15 20:40 346K
20260415T18Z_MSC_RDPS_WindDir_IsbL-0020_RLatLon0.09_PT004H.grib2 2026-04-15 20:40 345K
20260415T18Z_MSC_RDPS_WindDir_IsbL-0030_RLatLon0.09_PT004H.grib2 2026-04-15 20:40 353K
20260415T18Z_MSC_RDPS_WindDir_IsbL-0050_RLatLon0.09_PT004H.grib2 2026-04-15 20:40 381K
20260415T18Z_MSC_RDPS_WindDir_IsbL-0100_RLatLon0.09_PT004H.grib2 2026-04-15 20:40 374K
20260415T18Z_MSC_RDPS_WindDir_IsbL-0150_RLatLon0.09_PT004H.grib2 2026-04-15 20:40 368K
20260415T18Z_MSC_RDPS_WindDir_IsbL-0175_RLatLon0.09_PT004H.grib2 2026-04-15 20:40 390K
20260415T18Z_MSC_RDPS_WindDir_IsbL-0200_RLatLon0.09_PT004H.grib2 2026-04-15 20:40 413K
20260415T18Z_MSC_RDPS_WindDir_IsbL-0225_RLatLon0.09_PT004H.grib2 2026-04-15 20:40 422K
20260415T18Z_MSC_RDPS_WindDir_IsbL-0250_RLatLon0.09_PT004H.grib2 2026-04-15 20:40 427K
20260415T18Z_MSC_RDPS_WindDir_IsbL-0275_RLatLon0.09_PT004H.grib2 2026-04-15 20:40 453K
20260415T18Z_MSC_RDPS_WindDir_IsbL-0300_RLatLon0.09_PT004H.grib2 2026-04-15 20:40 456K
20260415T18Z_MSC_RDPS_WindDir_IsbL-0350_RLatLon0.09_PT004H.grib2 2026-04-15 20:40 479K
20260415T18Z_MSC_RDPS_WindDir_IsbL-0400_RLatLon0.09_PT004H.grib2 2026-04-15 20:40 495K
20260415T18Z_MSC_RDPS_WindDir_IsbL-0450_RLatLon0.09_PT004H.grib2 2026-04-15 20:40 520K
20260415T18Z_MSC_RDPS_WindDir_IsbL-0500_RLatLon0.09_PT004H.grib2 2026-04-15 20:40 544K
20260415T18Z_MSC_RDPS_WindDir_IsbL-0550_RLatLon0.09_PT004H.grib2 2026-04-15 20:40 563K
20260415T18Z_MSC_RDPS_WindDir_IsbL-0600_RLatLon0.09_PT004H.grib2 2026-04-15 20:40 595K
20260415T18Z_MSC_RDPS_WindDir_IsbL-0650_RLatLon0.09_PT004H.grib2 2026-04-15 20:40 633K
20260415T18Z_MSC_RDPS_WindDir_IsbL-0700_RLatLon0.09_PT004H.grib2 2026-04-15 20:40 680K
20260415T18Z_MSC_RDPS_WindDir_IsbL-0750_RLatLon0.09_PT004H.grib2 2026-04-15 20:40 725K
20260415T18Z_MSC_RDPS_WindDir_IsbL-0800_RLatLon0.09_PT004H.grib2 2026-04-15 20:40 782K
20260415T18Z_MSC_RDPS_WindDir_IsbL-0850_RLatLon0.09_PT004H.grib2 2026-04-15 20:40 841K
20260415T18Z_MSC_RDPS_WindDir_IsbL-0875_RLatLon0.09_PT004H.grib2 2026-04-15 20:40 865K
20260415T18Z_MSC_RDPS_WindDir_IsbL-0900_RLatLon0.09_PT004H.grib2 2026-04-15 20:40 886K
20260415T18Z_MSC_RDPS_WindDir_IsbL-0925_RLatLon0.09_PT004H.grib2 2026-04-15 20:40 898K
20260415T18Z_MSC_RDPS_WindDir_IsbL-0950_RLatLon0.09_PT004H.grib2 2026-04-15 20:40 901K
20260415T18Z_MSC_RDPS_WindDir_IsbL-0970_RLatLon0.09_PT004H.grib2 2026-04-15 20:40 906K
20260415T18Z_MSC_RDPS_WindDir_IsbL-0985_RLatLon0.09_PT004H.grib2 2026-04-15 20:40 916K
20260415T18Z_MSC_RDPS_WindDir_IsbL-1000_RLatLon0.09_PT004H.grib2 2026-04-15 20:40 926K
20260415T18Z_MSC_RDPS_WindDir_IsbL-1015_RLatLon0.09_PT004H.grib2 2026-04-15 20:40 942K
20260415T18Z_MSC_RDPS_WindGust-Max_AGL-10m_RLatLon0.09_PT004H.grib2 2026-04-15 20:40 1.0M
20260415T18Z_MSC_RDPS_WindGust-Min_AGL-10m_RLatLon0.09_PT004H.grib2 2026-04-15 20:40 968K
20260415T18Z_MSC_RDPS_WindGust_AGL-10m_RLatLon0.09_PT004H.grib2 2026-04-15 20:40 1.0M
20260415T18Z_MSC_RDPS_WindSpeed_AGL-10m_RLatLon0.09_PT004H.grib2 2026-04-15 20:40 835K
20260415T18Z_MSC_RDPS_WindSpeed_AGL-120m_RLatLon0.09_PT004H.grib2 2026-04-15 20:40 531K
20260415T18Z_MSC_RDPS_WindSpeed_AGL-40m_RLatLon0.09_PT004H.grib2 2026-04-15 20:40 665K
20260415T18Z_MSC_RDPS_WindSpeed_AGL-80m_RLatLon0.09_PT004H.grib2 2026-04-15 20:40 532K
20260415T18Z_MSC_RDPS_WindSpeed_IsbL-0001_RLatLon0.09_PT004H.grib2 2026-04-15 20:40 290K
20260415T18Z_MSC_RDPS_WindSpeed_IsbL-0005_RLatLon0.09_PT004H.grib2 2026-04-15 20:40 300K
20260415T18Z_MSC_RDPS_WindSpeed_IsbL-0010_RLatLon0.09_PT004H.grib2 2026-04-15 20:40 334K
20260415T18Z_MSC_RDPS_WindSpeed_IsbL-0020_RLatLon0.09_PT004H.grib2 2026-04-15 20:40 349K
20260415T18Z_MSC_RDPS_WindSpeed_IsbL-0030_RLatLon0.09_PT004H.grib2 2026-04-15 20:40 315K
20260415T18Z_MSC_RDPS_WindSpeed_IsbL-0050_RLatLon0.09_PT004H.grib2 2026-04-15 20:40 356K
20260415T18Z_MSC_RDPS_WindSpeed_IsbL-0100_RLatLon0.09_PT004H.grib2 2026-04-15 20:40 471K
20260415T18Z_MSC_RDPS_WindSpeed_IsbL-0150_RLatLon0.09_PT004H.grib2 2026-04-15 20:40 360K
20260415T18Z_MSC_RDPS_WindSpeed_IsbL-0175_RLatLon0.09_PT004H.grib2 2026-04-15 20:40 409K
20260415T18Z_MSC_RDPS_WindSpeed_IsbL-0200_RLatLon0.09_PT004H.grib2 2026-04-15 20:40 406K
20260415T18Z_MSC_RDPS_WindSpeed_IsbL-0225_RLatLon0.09_PT004H.grib2 2026-04-15 20:40 436K
20260415T18Z_MSC_RDPS_WindSpeed_IsbL-0250_RLatLon0.09_PT004H.grib2 2026-04-15 20:40 441K
20260415T18Z_MSC_RDPS_WindSpeed_IsbL-0275_RLatLon0.09_PT004H.grib2 2026-04-15 20:40 439K
20260415T18Z_MSC_RDPS_WindSpeed_IsbL-0300_RLatLon0.09_PT004H.grib2 2026-04-15 20:40 437K
20260415T18Z_MSC_RDPS_WindSpeed_IsbL-0350_RLatLon0.09_PT004H.grib2 2026-04-15 20:40 469K
20260415T18Z_MSC_RDPS_WindSpeed_IsbL-0400_RLatLon0.09_PT004H.grib2 2026-04-15 20:40 451K
20260415T18Z_MSC_RDPS_WindSpeed_IsbL-0450_RLatLon0.09_PT004H.grib2 2026-04-15 20:40 452K
20260415T18Z_MSC_RDPS_WindSpeed_IsbL-0500_RLatLon0.09_PT004H.grib2 2026-04-15 20:40 570K
20260415T18Z_MSC_RDPS_WindSpeed_IsbL-0550_RLatLon0.09_PT004H.grib2 2026-04-15 20:40 574K
20260415T18Z_MSC_RDPS_WindSpeed_IsbL-0600_RLatLon0.09_PT004H.grib2 2026-04-15 20:40 588K
20260415T18Z_MSC_RDPS_WindSpeed_IsbL-0650_RLatLon0.09_PT004H.grib2 2026-04-15 20:40 608K
20260415T18Z_MSC_RDPS_WindSpeed_IsbL-0700_RLatLon0.09_PT004H.grib2 2026-04-15 20:40 673K
20260415T18Z_MSC_RDPS_WindSpeed_IsbL-0750_RLatLon0.09_PT004H.grib2 2026-04-15 20:40 706K
20260415T18Z_MSC_RDPS_WindSpeed_IsbL-0800_RLatLon0.09_PT004H.grib2 2026-04-15 20:40 757K
20260415T18Z_MSC_RDPS_WindSpeed_IsbL-0850_RLatLon0.09_PT004H.grib2 2026-04-15 20:40 808K
20260415T18Z_MSC_RDPS_WindSpeed_IsbL-0875_RLatLon0.09_PT004H.grib2 2026-04-15 20:40 823K
20260415T18Z_MSC_RDPS_WindSpeed_IsbL-0900_RLatLon0.09_PT004H.grib2 2026-04-15 20:40 841K
20260415T18Z_MSC_RDPS_WindSpeed_IsbL-0925_RLatLon0.09_PT004H.grib2 2026-04-15 20:40 853K
20260415T18Z_MSC_RDPS_WindSpeed_IsbL-0950_RLatLon0.09_PT004H.grib2 2026-04-15 20:40 853K
20260415T18Z_MSC_RDPS_WindSpeed_IsbL-0970_RLatLon0.09_PT004H.grib2 2026-04-15 20:40 852K
20260415T18Z_MSC_RDPS_WindSpeed_IsbL-0985_RLatLon0.09_PT004H.grib2 2026-04-15 20:40 850K
20260415T18Z_MSC_RDPS_WindSpeed_IsbL-1000_RLatLon0.09_PT004H.grib2 2026-04-15 20:40 847K
20260415T18Z_MSC_RDPS_WindSpeed_IsbL-1015_RLatLon0.09_PT004H.grib2 2026-04-15 20:40 837K
20260415T18Z_MSC_RDPS_WindU_AGL-10m_RLatLon0.09_PT004H.grib2 2026-04-15 20:40 432K
20260415T18Z_MSC_RDPS_WindU_AGL-120m_RLatLon0.09_PT004H.grib2 2026-04-15 20:40 530K
20260415T18Z_MSC_RDPS_WindU_AGL-40m_RLatLon0.09_PT004H.grib2 2026-04-15 20:40 535K
20260415T18Z_MSC_RDPS_WindU_AGL-80m_RLatLon0.09_PT004H.grib2 2026-04-15 20:40 532K
20260415T18Z_MSC_RDPS_WindU_IsbL-0001_RLatLon0.09_PT004H.grib2 2026-04-15 20:40 260K
20260415T18Z_MSC_RDPS_WindU_IsbL-0005_RLatLon0.09_PT004H.grib2 2026-04-15 20:40 293K
20260415T18Z_MSC_RDPS_WindU_IsbL-0010_RLatLon0.09_PT004H.grib2 2026-04-15 20:40 300K
20260415T18Z_MSC_RDPS_WindU_IsbL-0020_RLatLon0.09_PT004H.grib2 2026-04-15 20:40 315K
20260415T18Z_MSC_RDPS_WindU_IsbL-0030_RLatLon0.09_PT004H.grib2 2026-04-15 20:40 320K
20260415T18Z_MSC_RDPS_WindU_IsbL-0050_RLatLon0.09_PT004H.grib2 2026-04-15 20:40 351K
20260415T18Z_MSC_RDPS_WindU_IsbL-0100_RLatLon0.09_PT004H.grib2 2026-04-15 20:40 333K
20260415T18Z_MSC_RDPS_WindU_IsbL-0150_RLatLon0.09_PT004H.grib2 2026-04-15 20:40 379K
20260415T18Z_MSC_RDPS_WindU_IsbL-0175_RLatLon0.09_PT004H.grib2 2026-04-15 20:40 403K
20260415T18Z_MSC_RDPS_WindU_IsbL-0200_RLatLon0.09_PT004H.grib2 2026-04-15 20:40 421K
20260415T18Z_MSC_RDPS_WindU_IsbL-0225_RLatLon0.09_PT004H.grib2 2026-04-15 20:40 333K
20260415T18Z_MSC_RDPS_WindU_IsbL-0250_RLatLon0.09_PT004H.grib2 2026-04-15 20:40 336K
20260415T18Z_MSC_RDPS_WindU_IsbL-0275_RLatLon0.09_PT004H.grib2 2026-04-15 20:40 349K
20260415T18Z_MSC_RDPS_WindU_IsbL-0300_RLatLon0.09_PT004H.grib2 2026-04-15 20:40 346K
20260415T18Z_MSC_RDPS_WindU_IsbL-0350_RLatLon0.09_PT004H.grib2 2026-04-15 20:40 354K
20260415T18Z_MSC_RDPS_WindU_IsbL-0400_RLatLon0.09_PT004H.grib2 2026-04-15 20:40 355K
20260415T18Z_MSC_RDPS_WindU_IsbL-0450_RLatLon0.09_PT004H.grib2 2026-04-15 20:40 458K
20260415T18Z_MSC_RDPS_WindU_IsbL-0500_RLatLon0.09_PT004H.grib2 2026-04-15 20:40 462K
20260415T18Z_MSC_RDPS_WindU_IsbL-0550_RLatLon0.09_PT004H.grib2 2026-04-15 20:40 467K
20260415T18Z_MSC_RDPS_WindU_IsbL-0600_RLatLon0.09_PT004H.grib2 2026-04-15 20:40 478K
20260415T18Z_MSC_RDPS_WindU_IsbL-0650_RLatLon0.09_PT004H.grib2 2026-04-15 20:40 496K
20260415T18Z_MSC_RDPS_WindU_IsbL-0700_RLatLon0.09_PT004H.grib2 2026-04-15 20:40 515K
20260415T18Z_MSC_RDPS_WindU_IsbL-0750_RLatLon0.09_PT004H.grib2 2026-04-15 20:40 529K
20260415T18Z_MSC_RDPS_WindU_IsbL-0800_RLatLon0.09_PT004H.grib2 2026-04-15 20:40 574K
20260415T18Z_MSC_RDPS_WindU_IsbL-0850_RLatLon0.09_PT004H.grib2 2026-04-15 20:40 618K
20260415T18Z_MSC_RDPS_WindU_IsbL-0875_RLatLon0.09_PT004H.grib2 2026-04-15 20:40 634K
20260415T18Z_MSC_RDPS_WindU_IsbL-0900_RLatLon0.09_PT004H.grib2 2026-04-15 20:40 648K
20260415T18Z_MSC_RDPS_WindU_IsbL-0925_RLatLon0.09_PT004H.grib2 2026-04-15 20:40 655K
20260415T18Z_MSC_RDPS_WindU_IsbL-0950_RLatLon0.09_PT004H.grib2 2026-04-15 20:40 653K
20260415T18Z_MSC_RDPS_WindU_IsbL-0970_RLatLon0.09_PT004H.grib2 2026-04-15 20:40 791K
20260415T18Z_MSC_RDPS_WindU_IsbL-0985_RLatLon0.09_PT004H.grib2 2026-04-15 20:40 788K
20260415T18Z_MSC_RDPS_WindU_IsbL-1000_RLatLon0.09_PT004H.grib2 2026-04-15 20:40 832K
20260415T18Z_MSC_RDPS_WindU_IsbL-1015_RLatLon0.09_PT004H.grib2 2026-04-15 20:40 824K
20260415T18Z_MSC_RDPS_WindV_AGL-10m_RLatLon0.09_PT004H.grib2 2026-04-15 20:40 430K
20260415T18Z_MSC_RDPS_WindV_AGL-120m_RLatLon0.09_PT004H.grib2 2026-04-15 20:40 529K
20260415T18Z_MSC_RDPS_WindV_AGL-40m_RLatLon0.09_PT004H.grib2 2026-04-15 20:40 532K
20260415T18Z_MSC_RDPS_WindV_AGL-80m_RLatLon0.09_PT004H.grib2 2026-04-15 20:40 530K
20260415T18Z_MSC_RDPS_WindV_IsbL-0001_RLatLon0.09_PT004H.grib2 2026-04-15 20:40 262K
20260415T18Z_MSC_RDPS_WindV_IsbL-0005_RLatLon0.09_PT004H.grib2 2026-04-15 20:40 229K
20260415T18Z_MSC_RDPS_WindV_IsbL-0010_RLatLon0.09_PT004H.grib2 2026-04-15 20:40 298K
20260415T18Z_MSC_RDPS_WindV_IsbL-0020_RLatLon0.09_PT004H.grib2 2026-04-15 20:40 341K
20260415T18Z_MSC_RDPS_WindV_IsbL-0030_RLatLon0.09_PT004H.grib2 2026-04-15 20:40 347K
20260415T18Z_MSC_RDPS_WindV_IsbL-0050_RLatLon0.09_PT004H.grib2 2026-04-15 20:40 345K
20260415T18Z_MSC_RDPS_WindV_IsbL-0100_RLatLon0.09_PT004H.grib2 2026-04-15 20:40 420K
20260415T18Z_MSC_RDPS_WindV_IsbL-0150_RLatLon0.09_PT004H.grib2 2026-04-15 20:40 377K
20260415T18Z_MSC_RDPS_WindV_IsbL-0175_RLatLon0.09_PT004H.grib2 2026-04-15 20:40 401K
20260415T18Z_MSC_RDPS_WindV_IsbL-0200_RLatLon0.09_PT004H.grib2 2026-04-15 20:40 420K
20260415T18Z_MSC_RDPS_WindV_IsbL-0225_RLatLon0.09_PT004H.grib2 2026-04-15 20:40 332K
20260415T18Z_MSC_RDPS_WindV_IsbL-0250_RLatLon0.09_PT004H.grib2 2026-04-15 20:40 333K
20260415T18Z_MSC_RDPS_WindV_IsbL-0275_RLatLon0.09_PT004H.grib2 2026-04-15 20:40 346K
20260415T18Z_MSC_RDPS_WindV_IsbL-0300_RLatLon0.09_PT004H.grib2 2026-04-15 20:40 344K
20260415T18Z_MSC_RDPS_WindV_IsbL-0350_RLatLon0.09_PT004H.grib2 2026-04-15 20:40 353K
20260415T18Z_MSC_RDPS_WindV_IsbL-0400_RLatLon0.09_PT004H.grib2 2026-04-15 20:40 355K
20260415T18Z_MSC_RDPS_WindV_IsbL-0450_RLatLon0.09_PT004H.grib2 2026-04-15 20:40 457K
20260415T18Z_MSC_RDPS_WindV_IsbL-0500_RLatLon0.09_PT004H.grib2 2026-04-15 20:40 459K
20260415T18Z_MSC_RDPS_WindV_IsbL-0550_RLatLon0.09_PT004H.grib2 2026-04-15 20:40 463K
20260415T18Z_MSC_RDPS_WindV_IsbL-0600_RLatLon0.09_PT004H.grib2 2026-04-15 20:40 474K
20260415T18Z_MSC_RDPS_WindV_IsbL-0650_RLatLon0.09_PT004H.grib2 2026-04-15 20:40 491K
20260415T18Z_MSC_RDPS_WindV_IsbL-0700_RLatLon0.09_PT004H.grib2 2026-04-15 20:40 511K
20260415T18Z_MSC_RDPS_WindV_IsbL-0750_RLatLon0.09_PT004H.grib2 2026-04-15 20:40 523K
20260415T18Z_MSC_RDPS_WindV_IsbL-0800_RLatLon0.09_PT004H.grib2 2026-04-15 20:40 566K
20260415T18Z_MSC_RDPS_WindV_IsbL-0850_RLatLon0.09_PT004H.grib2 2026-04-15 20:40 610K
20260415T18Z_MSC_RDPS_WindV_IsbL-0875_RLatLon0.09_PT004H.grib2 2026-04-15 20:40 628K
20260415T18Z_MSC_RDPS_WindV_IsbL-0900_RLatLon0.09_PT004H.grib2 2026-04-15 20:40 644K
20260415T18Z_MSC_RDPS_WindV_IsbL-0925_RLatLon0.09_PT004H.grib2 2026-04-15 20:40 652K
20260415T18Z_MSC_RDPS_WindV_IsbL-0950_RLatLon0.09_PT004H.grib2 2026-04-15 20:40 652K
20260415T18Z_MSC_RDPS_WindV_IsbL-0970_RLatLon0.09_PT004H.grib2 2026-04-15 20:40 650K
20260415T18Z_MSC_RDPS_WindV_IsbL-0985_RLatLon0.09_PT004H.grib2 2026-04-15 20:40 788K
20260415T18Z_MSC_RDPS_WindV_IsbL-1000_RLatLon0.09_PT004H.grib2 2026-04-15 20:40 784K
20260415T18Z_MSC_RDPS_WindV_IsbL-1015_RLatLon0.09_PT004H.grib2 2026-04-15 20:40 823K